Minneapolis Flying Cloud, MN

12:53 PM CDT on April 29, 2017 (GMT -0500)
Flying Cloud

Weather History for KFCM - February, 2012

Change the Weather History Date:

Monday, February 27, 2012

  Actual Average Record
Temperature  
Mean Temperature 24 °F -  
Max Temperature 28 °F 28 °F 57 °F (2016)
Min Temperature 21 °F 15 °F -14 °F (2014)
Degree Days  
Heating Degree Days 40    
Moisture  
Dew Point 16 °F    
Average Humidity 72    
Maximum Humidity 86    
Minimum Humidity 56    
Precipitation  
Precipitation 0.00 in - - ()
Sea Level Pressure  
Sea Level Pressure 30.31 in    
Wind  
Wind Speed 12 mph (West)    
Max Wind Speed 17 mph    
Max Gust Speed 25 mph    
Visibility 9 miles    
Events Snow    
Averages and records for this station are not official NWS values.
T = Trace of Precipitation, MM = Missing Value Source: NWS Daily Summary

Daily Weather History Graph

Daily Weather History Graph

Search for Another Location

Airport or City:

Trip Planner

Search our weather history database for the weather conditions in past years. The results will help you decide how hot, cold, wet, or windy it might be!

Date:

Astronomy

Feb. 27, 2012 Rise Set
Actual Time 6:55 AM CST 5:58 PM CST
Civil Twilight 6:26 AM CST 6:27 PM CST
Nautical Twilight 5:52 AM CST 7:01 PM CST
Astronomical Twilight 5:18 AM CST 7:35 PM CST
Moon 9:08 AM CST (2/27) No Moon Set
Length of Visible Light 12h 01m
Length of Day
11h 02m
Waxing Crescent, 29% of the Moon is Illuminated
Feb 27
Waxing Crescent
Feb 29
First Quarter
Mar 8
Full
Mar 14
Last Quarter
Mar 22
New

Hourly Weather History & Observations

Time (CST) Temp. Windchill Dew Point Humidity Pressure Visibility Wind Dir Wind Speed Gust Speed Precip Events Conditions
12:53 AM 25.0 °F 11.7 °F 19.0 °F 78% 30.07 in 4.0 mi West 17.3 mph 25.3 mph 0.00 in Snow Light Snow
1:05 AM 24.8 °F 12.4 °F 19.4 °F 80% 30.04 in 1.8 mi West 15.0 mph 19.6 mph 0.00 in Snow Light Snow
1:31 AM 23.0 °F 11.1 °F 19.4 °F 86% 30.06 in 3.0 mi West 12.7 mph 18.4 mph 0.00 in Snow Light Snow
1:40 AM 23.0 °F 11.1 °F 19.4 °F 86% 30.06 in 9.0 mi West 12.7 mph - 0.00 in   Overcast
1:53 AM 24.1 °F 12.0 °F 19.0 °F 81% 30.11 in 10.0 mi West 13.8 mph 21.9 mph 0.00 in   Overcast
2:04 AM 24.8 °F 14.0 °F 19.4 °F 80% 30.08 in 8.0 mi West 11.5 mph - 0.00 in Snow Light Snow
2:53 AM 23.0 °F 10.1 °F 18.0 °F 81% 30.14 in 8.0 mi West 15.0 mph 23.0 mph 0.00 in   Overcast
3:53 AM 23.0 °F 10.6 °F 17.1 °F 78% 30.17 in 10.0 mi West 13.8 mph 21.9 mph N/A   Overcast
4:53 AM 21.9 °F 9.2 °F 16.0 °F 78% 30.22 in 10.0 mi West 13.8 mph 21.9 mph N/A   Overcast
5:53 AM 21.9 °F 9.2 °F 15.1 °F 75% 30.26 in 10.0 mi WNW 13.8 mph 23.0 mph N/A   Overcast
6:53 AM 21.9 °F 11.7 °F 15.1 °F 75% 30.29 in 10.0 mi WNW 9.2 mph - N/A   Overcast
7:53 AM 21.0 °F 8.6 °F 14.0 °F 74% 30.34 in 10.0 mi NW 12.7 mph - N/A   Overcast
8:53 AM 21.9 °F 11.7 °F 15.1 °F 75% 30.39 in 10.0 mi WNW 9.2 mph - N/A   Overcast
9:53 AM 21.9 °F 11.7 °F 14.0 °F 72% 30.41 in 10.0 mi NW 9.2 mph - N/A   Overcast
10:53 AM 23.0 °F 13.9 °F 14.0 °F 68% 30.41 in 10.0 mi WNW 8.1 mph - N/A   Mostly Cloudy
11:41 AM 24.8 °F 14.6 °F 14.0 °F 64% 30.40 in 10.0 mi West 10.4 mph - N/A   Scattered Clouds
11:53 AM 24.1 °F 13.1 °F 14.0 °F 65% 30.45 in 10.0 mi NW 11.5 mph - N/A   Scattered Clouds
12:53 PM 26.1 °F 18.4 °F 14.0 °F 60% 30.44 in 10.0 mi WSW 6.9 mph - N/A   Clear
1:53 PM 26.1 °F 16.8 °F 14.0 °F 60% 30.45 in 10.0 mi West 9.2 mph - N/A   Clear
2:53 PM 28.9 °F 22.8 °F 15.1 °F 56% 30.44 in 10.0 mi West 5.8 mph - N/A   Clear
3:53 PM 28.9 °F 21.1 °F 15.1 °F 56% 30.44 in 10.0 mi West 8.1 mph - N/A   Clear
4:53 PM 28.0 °F 20.8 °F 15.1 °F 58% 30.45 in 10.0 mi West 6.9 mph - N/A   Clear
5:53 PM 25.0 °F 20.7 °F 15.1 °F 66% 30.45 in 10.0 mi West 3.5 mph - N/A   Clear
6:53 PM 24.1 °F 19.7 °F 15.1 °F 69% 30.45 in 10.0 mi West 3.5 mph - N/A   Clear
7:53 PM 23.0 °F - 15.1 °F 72% 30.43 in 10.0 mi Calm Calm - N/A   Clear
9:53 PM 21.9 °F - 16.0 °F 78% 30.41 in 10.0 mi Calm Calm - N/A   Partly Cloudy
10:53 PM 23.0 °F 17.0 °F 17.1 °F 78% 30.41 in 10.0 mi SSE 4.6 mph - N/A   Scattered Clouds
11:53 PM 23.0 °F 14.7 °F 17.1 °F 78% 30.40 in 10.0 mi SE 6.9 mph - N/A   Partly Cloudy